SCOUT X-4 DEB, 3750

Orbit data source: Space-Track

SCOUT X-4 DEB, 3750 is space debris in LEO originally from a launch on Thu, 19 Dec 1963 UTC launched from the Air Force Western Test Range (AFWTR). Debris objects in space refer to the collection of defunct objects orbiting the Earth. Examples of debris include non-operational satellites, rocket bodies, and fragments generated from explosions, collisions, or faulty payload assembly.

Loading next visibility...
Identifier
3750, 1963-053J
Orbit
LEO
Last TLE update
12 hours ago
Origin
Manufacturer
Unknown
Mission
Spacecraft
Bus & Motor
Unknown
Mass
Unknown
Launch date (UTC)
1963-12-19 (61 years ago)
Launch vehicle
Unknown
Launch site
Air Force Western Test Range (AFWTR)
Object type
Payload
Rocket body
Debris
Shape & HBR
Unknown
Radar Cross Section
Small (<0.1 m²)

Expand to show TLE details & history

TLE from 12 hours ago
0 SCOUT X-4 DEB
1 03750U 63053J   25128.71830563  .00024264  00000-0  34633-2 0  9992
2 03750  78.5749 239.5404 0209494  78.8668 283.5996 14.62651893748955
Epoch: 2025-05-08T17:14Z
Definitive object data (Epoch: 2025-05-08T17:14:21.606Z)
Latitude
-0.00003°
Longitude
114.16559°
Altitude
655.648 km
Speed
7.547 km/s
True Right ascension
15h 58m 09s
True Declination
0° 00' 00"
Sunlit
Object was in full shadow at TLE epoch
Visualization TLE readout
Latitude
7.39413°
Longitude
-68.03413°
Altitude
696.444 km
Speed
7.503 km/s
Apparent Right ascension
02h 55m 50s
Apparent Declination
-15° 27' 33"
Sunlit
Object is in daylight
Visualization observer readout
Local Sidereal Time
13:38:23
Azimuth
319.873° NNW
Elevation
-60.282°
Doppler factor
1
Orbital elements
Apogee altitude
829.78 km
Perigee altitude
533.974 km
Semi-major axis
7,060.014 km
Eccentricity
0.0209494
Inclination
78.5749°
RAAN
239.5404°
Arg. of periapsis
78.8668°
True anomaly
281.25249°
Mean anomaly
283.5996°
Eccentric anomaly
282.42741°
Mean motion
3.65877 °/min
BSTAR
0.0034633
Orbital period
98.39 mins
Loading maneuver chart data...
Loading SW <> Apogee altitude chart data...
Loading historical data...
Loading historical data...
Loading historical data...
Loading historical data...
Loading historical data...
Loading historical data...
Loading historical data...

SCOUT X-4 DEB Visibility forecast

Observer location: undefined°, undefined°

Span
Click to sort rows by Start time (UTC) header in descending order
Start Az.
Max El. time (UTC)
Max El. Az.
Max El.
End time (UTC)
End Az.
7 mins2025-05-09 08:07:43.110Z180.455° SSW2025-05-09 08:11:43.110Z94.51° ESE41.6°2025-05-09 08:14:43.110Z22.129° NNE
6 mins2025-05-09 18:25:43.110Z15.69° NNE2025-05-09 18:28:43.110Z87.915° E30.224°2025-05-09 18:31:43.110Z136.848° SSE
|